Temp
17 15 16 18 19 19 21 21 22 23 24 25 25 25 26 27 27 26 27 28 28 27 27 28 29 30 30 32 30 30 29 28 26 23 23 22 22 22 22 22 22 22 21 21
16 15 18 19 20 19 19 19 19 21 24 24 24 25 26 27 28 28 28 28 27 26 25 24 26 29 30 30 31 30 29 28 25 23 22 23 22 22 22 22 22 21 21 21
15 17 19 19 19 19 19 19 20 20 22 24 23 23 24 26 26 26 26 26 26 27 26 24 25 26 26 27 29 29 27 25 23 23 22 22 23 22 21 21 21 21 22 21
16 17 18 18 18 19 18 21 21 21 21 20 25 21 24 25 26 27 26 25 26 27 24 24 24 21 23 25 25 24 23 22 22 22 23 22 21 21 22 22 22 22 21 21
16 17 17 18 19 20 19 21 21 21 20 20 21 20 24 24 25 26 27 27 28 26 24 24 24 21 22 22 22 22 22 22 22 23 23 22 22 22 22 22 22 21 20 20
17 18 18 18 19 20 21 20 20 21 19 18 21 21 23 24 25 25 26 26 27 25 24 23 20 20 19 21 21 21 22 21 22 22 22 22 22 22 21 21 21 20 20 20
17 17 18 19 18 19 18 18 16 16 16 19 22 21 23 23 24 25 26 26 25 24 23 19 18 19 18 18 20 21 21 21 22 22 22 22 22 21 21 20 20 20 19 19
14 15 17 20 18 17 17 16 14 16 16 19 22 20 22 25 27 28 27 27 25 24 19 19 19 18 18 18 19 20 20 20 22 21 21 21 21 21 20 20 20 19 19 19
14 15 18 18 18 18 17 17 18 17 19 18 20 22 23 27 27 27 27 25 21 19 18 18 18 18 18 18 19 20 20 21 21 21 21 21 20 20 20 20 19 19 19 18
13 13 16 17 18 18 17 18 17 16 17 17 19 21 23 24 24 25 25 22 20 19 19 18 18 18 18 18 19 20 20 21 21 21 21 20 20 20 20 19 19 19 18 18
13 12 13 15 16 16 16 16 17 16 17 19 17 20 23 24 24 25 24 22 20 20 19 19 18 18 18 18 19 20 20 21 20 21 20 20 20 20 19 19 19 19 18 18
12 10 10 13 16 18 16 16 15 14 16 17 18 21 24 25 24 24 23 22 21 20 19 19 19 18 18 18 19 20 20 21 21 21 21 20 20 19 19 19 19 19 19 18
12 10 9 11 14 15 15 16 16 15 16 18 19 20 25 24 25 25 23 22 21 20 20 19 19 19 19 19 19 19 20 21 21 21 20 19 19 19 19 19 19 19 19 19
11 10 10 9 13 14 13 14 15 15 14 18 19 21 24 25 24 25 23 22 22 21 21 20 20 20 19 19 19 19 21 21 21 20 20 20 19 19 19 19 19 19 20 20
10 10 11 11 12 13 14 15 15 15 15 14 19 19 23 25 25 25 23 22 22 21 21 21 20 20 20 19 19 20 21 21 21 20 20 19 19 19 19 19 19 19 20 20
9 9 10 11 13 14 13 15 15 16 16 16 16 18 22 23 25 23 23 23 23 22 22 22 21 21 20 20 20 20 21 21 21 20 19 19 19 18 19 19 19 20 20 19
10 10 11 11 12 14 13 15 16 17 18 18 17 20 21 21 23 21 23 24 23 23 23 22 22 21 21 21 21 20 21 21 21 19 19 19 19 19 19 19 19 19 19 19
12 10 11 11 11 12 15 14 15 18 20 18 18 20 21 19 19 18 18 24 24 24 23 23 23 22 21 21 21 22 21 21 20 19 19 19 20 19 19 19 19 19 19 18
13 12 11 11 12 15 15 13 13 14 15 16 16 18 19 18 17 19 18 18 23 24 24 24 23 22 22 21 22 21 20 20 20 20 19 20 21 20 19 19 19 18 18 18
13 13 11 12 12 13 11 11 12 12 16 15 14 16 19 17 17 17 18 18 21 22 24 23 23 22 22 21 22 20 20 20 20 20 20 21 21 20 19 19 19 19 18 18
11 11 11 11 12 12 10 10 12 15 15 13 14 14 17 18 19 18 18 18 19 22 23 23 23 22 22 22 22 21 20 20 22 21 21 21 21 20 20 19 19 19 18 17
10 10 12 12 12 12 8 10 13 12 12 13 15 17 17 17 17 19 19 19 19 22 23 23 23 22 21 22 22 21 20 23 23 22 21 21 21 20 20 19 18 18 17 16
11 10 10 10 10 9 7 10 11 11 11 12 13 16 18 17 17 18 17 18 19 20 21 23 22 21 21 22 22 21 24 24 23 22 20 21 20 20 19 19 18 17 16 16
10 11 10 10 10 9 11 11 11 11 11 12 14 17 19 16 17 18 17 19 18 19 20 21 20 20 21 22 22 24 25 23 22 21 19 20 20 19 19 18 18 17 16 15
10 10 11 10 11 11 11 11 11 11 12 13 16 18 18 18 17 17 17 18 20 21 21 21 21 20 20 22 23 25 25 23 21 20 19 19 19 19 18 18 18 18 17 17
9 10 10 10 11 11 11 11 12 12 12 13 15 18 18 17 17 17 17 17 18 20 21 21 21 20 21 22 22 24 24 24 21 19 19 19 18 18 19 18 18 18 18 17
Height
743 756 744 727 740 744 737 740 736 730 725 731 724 717 706 701 698 700 692 686 680 678 668 664 663 662 665 667 668 671 672 675 679 684 689 694 698 705 711 716 722 728 733 735
747 743 733 737 739 743 745 747 740 737 725 725 726 715 701 693 689 689 684 679 675 670 664 661 658 657 658 660 662 663 665 668 673 678 686 692 698 706 711 716 720 724 728 731
747 736 731 739 741 742 738 743 743 747 733 719 730 721 706 688 684 680 677 669 667 660 659 658 653 652 653 654 655 658 660 664 671 677 685 694 701 708 712 716 719 721 725 728
738 732 734 736 738 738 739 731 734 741 745 748 725 736 706 687 678 675 671 669 660 653 654 651 649 649 649 651 655 657 662 664 671 678 684 691 697 704 709 713 716 720 724 727
733 730 733 733 731 726 730 727 729 730 737 742 737 749 662 683 680 670 661 653 647 648 648 645 642 643 647 651 654 659 664 670 674 679 685 692 699 704 708 712 716 719 723 726
724 721 724 725 721 721 721 723 727 727 739 753 726 735 672 682 671 664 653 648 644 642 640 641 639 641 648 652 657 661 666 673 676 682 688 694 699 704 707 711 715 719 722 725
721 721 715 714 723 719 724 735 754 758 753 729 710 723 676 663 655 655 651 645 640 637 639 641 643 645 647 653 658 664 669 674 679 685 691 695 699 703 707 711 715 718 721 724
733 732 715 706 715 722 725 732 747 749 747 722 705 705 678 650 642 638 639 636 635 635 638 640 642 646 651 656 661 667 672 676 681 687 692 696 701 704 709 712 715 718 720 721
729 724 708 709 710 714 719 724 716 729 713 727 702 678 659 643 637 630 634 636 640 641 640 642 646 649 653 660 664 669 674 678 684 689 694 698 702 705 709 712 715 717 719 721
734 735 714 710 707 708 713 711 725 729 735 737 703 689 671 652 644 635 636 639 642 643 642 645 648 652 657 663 667 672 677 682 686 691 695 700 703 706 709 712 714 717 719 721
731 740 727 719 717 716 718 715 713 715 716 712 716 686 649 642 638 633 632 629 635 640 641 645 650 656 660 666 671 675 680 684 689 693 697 701 704 706 709 712 715 717 719 721
734 742 746 724 709 700 707 713 717 727 716 702 699 667 637 630 626 617 621 625 633 636 641 646 652 657 663 668 672 677 682 686 691 695 698 701 704 707 710 712 715 717 719 721
738 746 748 726 706 705 709 705 708 710 708 697 698 665 630 630 628 618 617 625 632 638 644 649 654 659 664 671 674 678 683 688 692 696 698 701 703 707 709 712 715 717 719 721
740 742 740 747 718 715 717 708 708 710 712 689 680 672 641 630 633 623 632 623 630 636 641 648 655 660 664 670 675 679 684 688 692 695 697 700 703 706 709 713 715 716 718 720
739 738 731 726 720 716 709 704 703 706 702 708 681 669 642 631 628 624 628 626 632 638 643 646 653 658 664 670 675 679 683 688 691 694 697 700 703 707 710 713 715 716 718 719
738 736 728 721 708 700 703 692 695 692 693 692 688 661 644 636 622 623 624 624 630 636 640 645 651 657 664 668 673 678 682 686 690 693 696 700 704 707 710 713 715 716 718 720
730 729 721 712 703 690 700 686 685 679 677 676 680 652 644 641 627 628 632 619 625 631 636 642 648 654 661 667 672 677 681 685 689 692 696 700 703 708 710 713 715 717 719 721
713 721 718 713 709 702 682 680 678 665 656 664 658 644 642 642 639 635 637 629 623 629 634 639 645 653 659 664 670 676 680 684 688 693 697 700 703 707 709 712 715 717 720 721
702 705 717 709 692 675 674 683 688 684 673 662 666 645 637 635 645 652 635 634 625 621 629 634 641 649 656 662 669 674 679 683 688 692 696 699 702 706 709 712 714 718 720 722
694 696 710 704 696 681 692 693 692 692 673 663 671 660 640 649 664 657 634 636 628 622 625 633 640 648 654 661 667 673 678 682 687 691 694 697 701 705 707 711 714 717 720 722
709 706 707 704 694 688 700 703 686 673 678 670 665 663 646 643 644 640 637 632 626 620 624 633 640 645 652 660 666 672 676 681 684 689 693 697 700 703 706 710 714 716 719 722
714 710 696 696 694 688 704 688 680 691 682 675 665 655 648 646 642 641 637 637 629 620 625 632 640 647 653 659 665 669 674 678 683 688 692 695 699 703 707 710 713 716 718 721
713 715 712 710 707 709 712 699 696 690 687 674 664 656 649 650 651 646 649 643 632 627 628 632 638 647 654 659 663 667 671 676 681 687 691 696 700 703 707 709 713 716 718 721
718 713 712 706 705 706 694 686 686 684 680 672 671 661 646 662 655 654 649 639 635 634 632 638 642 648 655 658 662 665 669 674 679 684 690 695 699 704 707 710 713 716 719 722
723 717 716 712 703 696 690 689 689 681 675 668 661 650 653 656 660 659 650 643 641 638 634 638 643 649 653 656 660 664 668 673 679 683 689 695 699 703 706 710 714 716 719 720
729 723 725 717 708 707 697 690 692 687 671 663 660 656 657 658 658 657 651 650 644 644 640 639 643 648 651 656 661 663 666 670 676 683 688 693 698 703 706 709 714 717 720 721
Wind_Speed
3 4 18 27 17 10 10 12 15 4 10 14 20 22 20 17 19 14 17 17 19 17 18 24 30 34 23 20 25 23 22 29 30 31 30 29 29 28 24 26 25 21 25 25
4 18 14 10 6 12 14 15 19 6 8 10 14 25 25 24 24 19 22 21 17 14 12 10 13 17 18 22 19 19 24 29 32 31 29 25 31 27 27 23 22 24 23 25
10 6 9 16 13 17 16 18 14 10 11 20 7 19 18 18 14 12 11 13 12 16 14 12 10 18 19 20 23 23 26 29 29 28 28 22 24 23 18 21 20 21 22 24
11 12 14 14 19 17 18 12 11 16 13 15 4 20 24 19 25 18 13 11 15 13 9 10 9 6 18 21 20 20 22 28 28 28 29 30 21 20 16 20 17 19 22 21
12 9 4 13 16 15 19 14 11 13 11 14 14 6 30 10 18 17 18 19 19 14 11 13 12 8 18 24 23 23 24 26 28 29 29 29 25 20 16 15 15 15 18 16
13 9 14 13 14 12 8 10 16 17 4 8 12 13 22 15 18 11 12 11 12 10 10 1 5 20 19 25 26 27 28 28 28 26 27 27 23 17 19 18 18 18 15 10
3 9 11 11 12 11 7 1 4 4 6 16 13 9 21 11 7 11 15 15 14 9 5 8 10 11 16 19 26 28 29 29 27 26 24 22 18 18 23 22 18 14 11 9
6 4 9 2 2 6 7 9 5 7 5 8 14 10 9 16 25 25 17 17 6 4 5 8 10 11 14 20 24 26 28 28 27 25 23 22 22 22 18 15 15 13 9 5
0 5 2 7 8 2 5 10 7 5 14 2 7 9 8 19 24 22 18 5 6 7 9 11 11 12 17 18 23 27 28 28 27 26 24 20 18 18 16 12 10 8 6 7
6 5 5 6 5 3 6 4 3 4 8 6 6 6 11 8 10 10 10 10 7 6 12 12 11 11 16 22 27 29 28 29 26 24 20 18 18 16 12 9 9 8 8 9
3 1 5 5 4 8 3 2 3 4 4 10 3 6 5 13 12 17 8 14 15 13 13 13 12 12 18 22 24 27 27 26 24 22 20 18 18 14 12 10 11 11 9 10
1 2 4 10 15 13 4 6 5 2 7 4 4 16 12 16 9 19 12 15 12 13 13 13 13 12 17 18 24 26 25 24 22 22 20 19 19 17 14 11 11 11 9 9
4 2 4 9 2 7 6 3 1 4 6 16 6 9 3 8 7 4 19 16 14 14 15 13 13 13 12 17 20 25 25 24 23 21 18 22 19 17 14 12 9 11 11 8
2 4 6 6 7 7 8 8 7 3 3 11 16 16 22 21 8 6 6 17 18 17 17 15 13 13 13 18 20 23 27 26 23 22 23 22 18 15 15 14 11 10 8 7
7 4 10 12 17 17 18 16 12 8 6 4 7 17 18 17 13 11 12 17 18 18 17 16 15 13 12 16 19 24 28 26 24 21 22 19 15 15 16 15 9 7 8 6
6 4 5 15 18 18 19 13 12 11 12 11 15 26 13 9 9 6 18 20 19 18 17 17 16 15 14 17 19 25 27 26 24 23 22 19 16 16 15 14 9 6 10 12
8 5 3 8 13 3 4 12 9 5 7 6 7 12 15 7 2 7 8 19 20 19 18 18 17 16 14 20 23 25 27 25 23 22 23 23 19 17 15 15 11 9 12 11
9 5 4 6 6 4 5 11 5 6 8 1 12 15 5 8 7 7 6 9 18 18 18 17 15 14 21 24 27 29 30 26 24 21 22 22 19 18 16 15 14 11 11 14
14 8 3 2 2 3 3 9 8 10 5 4 13 7 8 5 6 9 2 5 8 18 16 16 21 24 24 27 31 30 27 27 25 19 23 22 19 19 17 16 14 13 12 14
9 9 3 3 4 2 1 9 16 11 5 8 14 11 3 20 12 6 5 4 6 8 13 15 23 25 26 26 32 29 25 24 22 21 26 24 22 22 21 18 16 14 15 15
2 3 7 7 4 3 3 14 16 5 3 18 16 10 7 6 2 4 6 7 8 7 13 21 25 24 27 32 31 24 25 23 27 26 27 26 24 23 20 18 16 13 12 14
2 3 1 3 1 4 14 14 7 6 7 11 15 11 8 8 9 4 7 5 8 9 16 23 19 20 25 32 30 23 23 29 26 26 27 27 25 23 20 18 13 11 14 18
2 4 2 2 1 4 11 11 6 8 9 11 14 17 14 14 9 8 6 1 7 6 8 20 21 19 23 29 30 24 29 25 22 29 25 28 24 23 20 19 16 13 17 23
3 3 4 5 5 1 10 13 12 9 11 15 13 12 16 10 7 5 4 8 8 7 7 13 14 15 17 26 30 35 31 24 27 29 29 30 27 24 20 18 18 18 20 20
2 6 6 4 5 7 10 12 13 18 15 17 15 10 13 14 7 5 7 11 9 9 8 12 14 13 19 25 31 34 31 25 29 29 30 27 28 26 22 19 19 19 19 23
3 2 0 2 5 3 6 9 11 13 18 24 21 10 11 11 10 9 11 10 9 10 15 11 13 20 19 23 26 34 33 28 31 24 26 26 27 26 24 21 17 17 16 19
Wind_Direction
243 188 222 217 224 282 274 263 252 253 200 214 242 255 264 254 256 258 263 266 261 253 248 253 255 252 239 243 236 222 207 207 204 194 179 179 183 186 182 181 177 188 193 207
226 233 247 268 261 228 248 267 268 307 297 230 245 257 260 262 262 253 257 257 255 253 257 263 244 231 220 217 218 208 203 200 201 190 183 176 167 156 164 174 186 193 204 207
223 224 221 239 249 248 244 236 260 268 305 291 304 284 272 265 264 264 258 259 261 258 259 260 230 221 211 194 196 197 196 192 188 181 168 155 155 159 158 173 185 200 205 206
255 248 255 259 229 237 250 251 253 245 255 261 203 280 265 270 268 267 251 250 255 262 245 240 243 180 187 189 186 177 177 178 175 172 163 158 154 157 181 189 190 198 200 198
232 283 238 238 246 231 251 251 245 230 238 247 243 275 269 225 250 250 253 248 258 262 241 237 232 185 178 164 155 158 162 163 161 161 164 165 168 172 181 192 201 196 185 194
231 210 249 255 262 262 286 232 235 258 242 244 218 220 277 246 247 243 247 253 264 254 257 195 163 146 139 147 143 147 149 154 155 158 164 165 163 168 161 156 162 164 169 185
289 250 238 235 247 256 232 241 232 239 202 234 178 220 239 267 238 242 251 254 248 260 199 147 142 138 130 132 138 143 146 147 146 148 151 153 156 151 155 157 156 164 180 203
210 248 217 164 189 216 186 182 192 197 193 243 258 234 247 236 253 260 248 254 273 231 147 136 132 126 125 131 136 139 138 141 145 141 136 132 129 135 141 157 166 174 193 189
116 252 38 301 297 188 310 219 206 283 275 356 233 283 298 270 272 266 262 232 183 147 130 126 123 124 127 130 137 142 137 140 141 133 130 130 132 136 139 142 151 160 173 172
16 309 266 306 348 271 202 293 167 201 213 236 259 257 234 263 263 270 248 174 157 142 132 130 127 128 126 136 144 146 138 139 135 136 134 129 131 134 139 148 155 159 154 161
115 15 310 338 210 231 308 224 221 168 197 221 288 248 234 256 268 274 233 172 159 160 142 135 131 128 131 136 142 144 141 140 140 142 141 143 143 146 147 150 160 159 176 177
118 149 264 253 249 261 236 248 149 195 255 265 229 256 266 290 304 293 172 161 149 143 139 134 134 134 136 139 144 149 147 148 150 154 156 156 152 154 157 162 163 170 173 183
355 280 307 316 310 237 252 182 7 232 231 245 235 259 233 264 325 360 146 148 143 139 138 137 137 141 143 146 148 154 158 160 163 166 165 157 156 162 162 163 164 177 180 188
46 243 226 228 273 325 286 291 300 315 254 247 245 284 266 270 309 111 247 146 150 149 146 144 144 147 148 152 156 159 167 170 172 174 166 165 167 169 167 169 168 161 200 206
163 234 260 266 269 267 262 262 256 247 257 263 290 276 277 268 294 220 170 148 145 149 150 151 150 151 152 154 158 166 174 173 181 175 169 171 168 167 166 178 180 206 194 192
177 251 235 281 267 263 243 235 241 243 263 254 251 275 277 288 284 117 167 155 152 155 154 154 153 155 156 162 162 169 178 177 179 174 167 166 158 163 168 172 151 142 180 155
195 211 237 271 337 176 227 241 219 250 215 225 248 276 300 349 24 97 199 161 157 159 158 160 160 160 162 169 165 171 177 173 175 162 164 161 154 168 171 169 157 151 144 147
239 201 206 279 279 231 104 42 1 236 194 255 295 259 152 99 29 18 358 213 155 161 162 165 159 161 165 167 171 174 172 171 168 157 161 162 162 172 175 171 165 166 166 156
217 222 264 248 281 318 62 30 355 1 290 347 338 357 134 125 18 296 98 304 192 166 167 167 162 163 164 165 172 162 164 166 162 161 166 165 164 177 176 176 173 176 176 168
193 206 194 282 284 288 126 320 325 308 241 358 344 326 24 146 177 245 324 302 299 153 158 160 160 159 158 166 165 154 160 165 169 168 175 174 175 180 175 175 179 183 182 171
26 332 242 252 268 287 29 291 299 198 1 319 326 299 356 75 128 260 297 312 299 167 147 152 156 159 163 164 162 158 162 171 183 175 177 179 184 183 182 182 182 188 182 170
345 273 236 230 259 278 353 348 25 319 287 306 321 330 64 24 6 354 333 295 315 135 144 152 153 157 160 163 162 165 169 182 187 180 177 179 178 181 172 169 174 175 176 168
3 328 285 29 227 351 296 278 331 344 326 310 335 323 80 39 353 16 276 144 358 46 122 151 147 151 163 166 169 166 178 185 175 175 174 173 169 170 171 164 161 158 163 160
297 347 4 339 7 235 338 354 353 349 331 341 309 284 84 82 341 334 310 47 33 16 93 112 139 152 169 172 175 177 179 180 170 169 165 168 166 169 169 168 170 164 168 167
312 348 331 293 315 329 343 352 326 325 330 323 331 24 58 77 45 348 18 26 33 41 80 149 162 166 177 177 180 179 181 174 166 163 162 165 170 171 167 172 180 183 189 187
329 291 21 299 309 283 305 333 286 315 343 330 332 2 38 57 40 24 28 14 39 30 34 46 169 167 180 182 185 182 185 178 166 157 162 167 169 175 174 175 183 200 207 203